User: anonymous
Location: Indian Springs
(36.5700°N, 115.6700°W)
Time: 22:46:27
(UTC-07:00)
Language:

Cosmos 2278 Rocket - Orbit

View from above orbital plane
View from above orbital plane
View from above satellite
View from above satellite

Ground track
Ground track

The orbit data is extracted from the following two-line orbital elements,

1 23088U 94023B   14211.90814682  .00000274  00000-0  16750-3 0  9834
2 23088 071.0018 330.5468 0005316 264.4348 234.8788 14.14568469 46733
Epoch (UTC): 30 July 2014 21:47:43
Eccentricity: 0.0005316
inclination: 71.0018°
perigee height: 840 km
apogee height: 847 km
right ascension of ascending node: 330.5468°
argument of perigee: 264.4348°
revolutions per day: 14.14568469
mean anomaly at epoch: 234.8788°
orbit number at epoch: 4673

The dashed part of the orbit path shows where the satellite is in the earth's shadow,  

DLR